This demonstration page uses our WeatherBlox Daily Observations layout. Learn more.

Left ArrowRight Arrow

Hourly Observations for October 21, 2015

Temp ( °F °C ) Dew Point ( °F °C ) Humidity (%) Winds ( mph kmh ) Pressure ( in mb ) Visibility ( mi km ) Precip ( " mm )
12:53 am 00:53 Clear 40 4.4 37 2.8 89 89 Calm 30.27 1025 10 16 0.00 0.00
1:53 am 01:53 Clear 39 3.9 36 2.2 89 89 Calm 30.28 1025 10 16 0.00 0.00
2:53 am 02:53 Clear 40 4.4 37 2.8 89 89 Calm 30.27 1025 10 16 0.00 0.00
3:53 am 03:53 Clear 44 6.7 41 5 89 89 Calm 30.28 1025 10 16 0.00 0.00
4:53 am 04:53 Clear 40 4.4 38 3.3 93 93 Calm 30.28 1025 10 16 0.00 0.00
5:53 am 05:53 Clear 40 4.4 38 3.3 93 93 Calm 30.30 1026 10 16 0.00 0.00
6:53 am 06:53 Clear with Mist and Fog 39 3.9 38 3.3 96 96 Calm 30.31 1026 6 10 0.00 0.00
7:53 am 07:53 Clear 38 3.3 36 2.2 93 93 Calm 30.32 1027 9 14 0.00 0.00
8:53 am 08:53 Sunny 46 7.8 42 5.6 86 86 E 3 6 30.34 1027 9 14 0.00 0.00
9:53 am 09:53 Sunny 55 12.8 45 7.2 69 69 VRB 3 6 30.34 1028 10 16 0.00 0.00
10:53 am 10:53 Sunny 64 17.8 45 7.2 50 50 Calm 30.33 1027 10 16 0.00 0.00
11:53 am 11:53 Sunny 67 19.4 45 7.2 45 45 W 6 9 30.31 1027 10 16 0.00 0.00
12:53 pm 12:53 Sunny 73 22.8 46 7.8 38 38 VRB 7 11 30.29 1026 10 16 0.00 0.00
1:53 pm 13:53 Sunny 76 24.4 47 8.3 36 36 VRB 3 6 30.27 1025 10 16 0.00 0.00
2:53 pm 14:53 Sunny 76 24.4 46 7.8 35 35 SW 10 17 30.24 1024 10 16 0.00 0.00
3:53 pm 15:53 Sunny 75 23.9 44 6.7 33 33 SSW 8 13 30.23 1024 10 16 0.00 0.00
4:53 pm 16:53 Sunny 76 24.4 46 7.8 35 35 VRB 6 9 30.23 1024 10 16 0.00 0.00
5:53 pm 17:53 Mostly Sunny 74 23.3 45 7.2 36 36 SW 6 9 30.23 1024 10 16 0.00 0.00
6:53 pm 18:53 Clear 69 20.6 46 7.8 44 44 SSW 3 6 30.24 1024 10 16 0.00 0.00
7:53 pm 19:53 Clear 57 13.9 46 7.8 67 67 SSE 3 6 30.24 1024 10 16 0.00 0.00
8:53 pm 20:53 Clear 57 13.9 46 7.8 67 67 VRB 3 6 30.23 1024 10 16 0.00 0.00
9:53 pm 21:53 Clear 54 12.2 46 7.8 75 75 Calm 30.23 1024 10 16 0.00 0.00
10:53 pm 22:53 Clear 51 10.6 45 7.2 80 80 Calm 30.23 1024 10 16 0.00 0.00
11:53 pm 23:53 Clear 50 10 45 7.2 83 83 Calm 30.23 1024 10 16 0.00 0.00

Powered by AerisWeather